HISPASAT 30W-6

Last updated on Mon Oct 27 2025 00:02:49 GMT+0000 (Coordinated Universal Time)

1 43228U 18023A 25299.39689014 -.00000204 00000+0 00000+0 0 9995 2 43228 0.0505 48.5571 0002709 173.8061 285.5786 1.00271109 28063
UTC large
Height (km)
Speed (km/s)
/
Latitude / Longitude
Inclination (degrees)
Orbital Period (minutes)
Azimuth
Elevation
Range (km)
Doppler Factor

Next 0 passes for location: London (51.5072 / 0.1276)

Sorry there are no passes over London.